ROMMA est une association bénévole à but non lucratif. Votre soutien est indispensable : ADHERER à ROMMA ou FAIRE un DON

Voiron - (38, Isère)

Voironnais (300 m)   Longitude: 05° 35' E   Latitude: 45° 23' N Station partenaire n°109
 

Détail journalier du     <<     >>

Température Precipitation Humidité Pression Vent Dir Rafale Dir. rafale Ensol.
Heure (°C) (mm) (%) (hPa) (km/h) (km/h) (min)
01:00 9.608810221S5S0
02:00 9.0090102203NNO0
03:00 8.8090102203NNO0
04:00 8.4091102203NNO0
05:00 8.209110211NE5NE0
06:00 8.209110212NNE10N0
07:00 8.209110212N10NNO0
08:00 8.208910212SSO13SSE0
09:00 9.208710212SE10SSO0
10:00 12.307710212SSE10SSE60
11:00 13.107210216S31S60
12:00 14.4070102014SSE32SSE60
13:00 15.806510205SSE11S60
14:00 17.905810193ENE10SSE60
15:00 20.405110182N8SSO60
16:00 20.405510183S11SSO60
17:00 20.805010173S11S60
18:00 20.705710174SSO11SSO60
19:00 19.706210172S8S30
20:00 17.107410182NO6NO0
21:00 16.3077101803NO0
22:00 16.907310181NO6NO0
23:00 16.807210182SO6SSE0
minuit 15.907610181NNO5NNO0

Graphique du 08-10-2019

 

Serveur OMMA